This demonstration page uses our WeatherBlox Daily Observations layout. Learn more.

Left ArrowRight Arrow

39.08367, -84.50855

Hourly Observations for August 18, 2015

Temp ( °F °C ) Dew Point ( °F °C ) Humidity (%) Winds ( mph kmh ) Pressure ( in mb ) Visibility ( mi km ) Precip ( " mm )
12:53 am 00:53 Clear with Mist and Fog 70 21.1 70 21.1 100 100 N N/A 30.03 1017 6 10 N/A
1:53 am 01:53 Clear with Mist and Fog 69 20.6 69 20.6 100 100 N N/A 30.01 1016 3 5 N/A
1:56 am 01:56 Clear with Mist and Fog 68 20 68 20 100 100 N N/A 30.00 1016 1 2 N/A
2:04 am 02:04 Clear with Fog 68 20 68 20 100 100 N N/A 30.00 1016 1 1 N/A
2:35 am 02:35 Clear with Mist and Fog 68 20 68 20 100 100 N N/A 30.00 1016 2 3 N/A
2:45 am 02:45 Clear with Mist and Fog 68 20 68 20 100 100 N N/A 30.00 1016 3 4 N/A
2:48 am 02:48 Mostly Clear with Mist and Fog 68 20 68 20 100 100 N N/A 30.00 1016 4 6 N/A
2:53 am 02:53 Partly Cloudy with Mist and Fog 68 20 68 20 100 100 N N/A 30.00 1016 5 8 N/A
3:03 am 03:03 Mostly Cloudy with Mist and Fog 68 20 68 20 100 100 N N/A 29.97 1015 5 8 N/A
3:12 am 03:12 Partly Cloudy with Mist and Fog 68 20 68 20 100 100 N N/A 29.97 1015 3 5 N/A
3:14 am 03:14 Partly Cloudy with Mist and Fog 67 19.4 67 19.4 100 100 N N/A 29.97 1015 2 3 N/A
3:18 am 03:18 Mostly Cloudy with Mist and Fog 66 19 66 19 100 100 N N/A 29.97 1015 1 1 N/A
3:29 am 03:29 Clear with Mist and Fog 67 19.4 67 19.4 100 100 N N/A 29.97 1015 1 2 N/A
3:38 am 03:38 Clear with Mist and Fog 68 20 68 20 100 100 N N/A 29.97 1015 3 5 N/A
3:46 am 03:46 Clear with Mist and Fog 66 19 66 19 100 100 N N/A 29.97 1015 2 3 N/A
3:53 am 03:53 Mostly Cloudy with Mist and Fog 67 19.4 67 19.4 100 100 N N/A 29.98 1015 1 1 N/A
3:57 am 03:57 Clear with Mist and Fog 67 19.4 67 19.4 100 100 N N/A 29.97 1015 1 2 N/A
4:05 am 04:05 Mostly Clear with Mist and Fog 67 19.4 67 19.4 100 100 N N/A 29.97 1015 3 5 N/A
4:11 am 04:11 Mostly Cloudy with Mist and Fog 67 19.4 67 19.4 100 100 N N/A 29.97 1015 2 3 N/A
4:18 am 04:18 Mostly Cloudy with Mist and Fog 66 19 66 19 100 100 N N/A 29.97 1015 1 1 N/A
4:29 am 04:29 Mostly Cloudy with Fog 66 18.9 66 18.9 100 100 N N/A 29.97 1015 0 0 N/A
4:43 am 04:43 Mostly Cloudy with Mist and Fog 66 18.9 66 18.9 100 100 N N/A 29.97 1015 1 2 N/A
4:50 am 04:50 Mostly Cloudy with Fog 66 19 66 19 100 100 N N/A 29.97 1015 0 0 N/A
4:53 am 04:53 Mostly Cloudy with Fog 66 18.9 66 18.9 100 100 N N/A 29.98 1015 0 0 N/A
5:39 am 05:39 Cloudy with Mist and Fog 66 18.9 66 18.9 100 100 NNE 3 6 29.94 1014 1 1 N/A
5:53 am 05:53 Mostly Cloudy with Fog 67 19.4 67 19.4 100 100 N N/A 29.97 1015 1 1 N/A
6:07 am 06:07 Cloudy with Mist and Fog 67 19.4 67 19.4 100 100 N N/A 29.97 1015 3 4 N/A
6:14 am 06:14 Cloudy with Mist and Fog 66 19 66 19 100 100 N N/A 29.97 1015 5 8 N/A
6:24 am 06:24 Cloudy with Mist and Fog 66 19 66 19 100 100 N N/A 29.97 1015 4 6 N/A
6:33 am 06:33 Cloudy with Mist and Fog 68 20 68 20 100 100 N N/A 29.97 1015 2 3 N/A
6:44 am 06:44 Mostly Cloudy with Mist and Fog 68 20 68 20 100 100 N N/A 29.97 1015 1 1 N/A
6:53 am 06:53 Mostly Cloudy with Mist and Fog 68 20 68 20 100 100 N N/A 29.98 1015 1 1 N/A
7:53 am 07:53 Cloudy with Mist and Fog 69 20.6 69 20.6 100 100 undefined N/A 29.99 1016 1 1 N/A
8:00 am 08:00 Cloudy with Mist and Fog 70 21 70 21 100 100 undefined N/A 29.97 1015 2 2 N/A
8:53 am 08:53 Mostly Cloudy with Mist and Fog 70 21.1 70 21.1 100 100 S 3 6 30.01 1016 5 8 N/A
9:53 am 09:53 Partly Cloudy 74 23.3 70 21.1 88 88 N N/A 29.98 1015 8 13 N/A
10:06 am 10:06 Partly Cloudy 73 23 70 21 89 89 SSE 3 6 29.97 1015 8 13 N/A
10:53 am 10:53 Mostly Sunny 75 23.9 70 21.1 84 84 N N/A 29.96 1015 10 16 N/A
11:03 am 11:03 Mostly Cloudy 75 24 70 21 83 83 N N/A 29.94 1014 10 16 N/A
11:53 am 11:53 Mostly Cloudy 77 25 70 21.1 79 79 SSE 5 7 29.95 1014 10 16 N/A
12:53 pm 12:53 Mostly Cloudy 79 26.1 69 20.6 72 72 SSW 5 7 29.93 1014 10 16 N/A
1:53 pm 13:53 Mostly Cloudy 82 27.8 69 20.6 65 65 S 9 15 29.91 1013 10 16 N/A
2:53 pm 14:53 Partly Cloudy 82 27.8 68 20 63 63 S 6 9 29.89 1012 10 16 N/A
3:53 pm 15:53 Mostly Cloudy 84 28.9 70 21.1 63 63 VRB 6 9 29.87 1012 10 16 N/A
4:53 pm 16:53 Mostly Cloudy 85 29.4 68 20 57 57 S 6 9 29.85 1011 10 16 N/A
5:53 pm 17:53 Mostly Cloudy 84 28.9 70 21.1 63 63 S 7 11 29.83 1010 10 16 N/A
6:53 pm 18:53 Sunny 83 28.3 69 20.6 63 63 S 8 13 29.82 1010 10 16 N/A
7:53 pm 19:53 Sunny 78 25.6 70 21.1 76 76 S 6 9 29.83 1010 10 16 N/A
8:53 pm 20:53 Clear 76 24.4 70 21.1 82 82 SSW 3 6 29.85 1011 10 16 N/A
9:53 pm 21:53 Clear 74 23.3 70 21.1 88 88 N N/A 29.86 1011 10 16 N/A
10:53 pm 22:53 Clear 73 22.8 70 21.1 90 90 N N/A 29.86 1011 10 16 N/A
11:53 pm 23:53 Mostly Clear 71 21.7 70 21.1 96 96 N N/A 29.87 1012 10 16 N/A

Powered by AerisWeather